Погода в Бузовице

Украина / Черновицкая область     48°30′04″N   26°55′38″E
темп.,
°C
ветер,
м/с
пор.,
м/с
влажн.,
%
обл.,
%
осадки,
мм/ч
давл.,
гПа
погр.,
м
12 августа, пт
пт1200:00+18с378076 0.0 1019165
03:00+17ссз2386100 0.1 101983
06:00+16с359289 0.0 1019114
09:00+18с468594 0.6 1018332
12:00+22с4673100 0.6 1018797
15:00+20ссв498495 2.4 1017333
18:00+21св577475 0.3 1017530
21:00+18ссв369333 0.3 1017125
13 августа, сб
сб1300:00+17ссв239524 0.0 101642
03:00+16ссз3494100 0.0 101573
06:00+17ссз3791100 0.0 1014196
09:00+20ссв4684100 0.1 1013405
12:00+26ссв3457100 0.0 10121166
15:00+27с3455100 2.7 10101280
18:00+25сз3562100 0.1 1009186
21:00+22ссв4107688 0.1 1009222
14 августа, вс
вс1400:00+21св41079100 0.1 1008235
03:00+19сз3379100 0.1 100850
06:00+17ссв2289100 0.2 100831
09:00+21ссв4576100 0.5 1008415
12:00+21св3483100 3.6 1008326
15:00+26св3450100 3.6 10081114
18:00+27всв465171 0.0 10071269
21:00+18ююз1185100 0.8 100817
15 августа, пн
пн1500:00+17ссз118747 0.8 100811
03:00+17с2286100 0.9 100715
06:00+17св2281100 0.1 100716
09:00+20с2273100 1.9 1007144
12:00+26сз2149100 0.0 1006681
15:00+29з214187 0.0 10061335
18:00+29з2241100 0.0 10051449
21:00+23зсз22637 0.0 100617
16 августа, вт
вт1600:00+20зсз22722 0.0 100723
03:00+19ссз22802 0.3 100615
06:00+18з22814 0.0 100714
09:00+23з34617 0.0 1007318
12:00+27з22495 0.0 1007941
15:00+30з44395 0.0 10071930
18:00+30зюз24354 0.0 10062184
21:00+18ююв3592100 8.3 100993